Location: Antin
(43.3330°N, 0.2804°E)
Time: 04:13:31
(UTC+00:00)

Cosmos 2369 - Pass Details

Date: 16 October 2021
Orbit: 838 x 857 km, 71.0° (Epoch: 02 December)

Event Time Altitude Azimuth Distance (km) Brightness Sun altitude
Rises 18:42:47 0° 214° (SW) 3,379 7.3 -16.9°
Reaches altitude 10° 18:45:15 10° 218° (SW) 2,450 6.6 -17.3°
Maximum altitude 18:50:48 59° 298° (WNW) 966 4.3 -18.3°
Drops below altitude 10° 18:56:25 10° 18° (NNE) 2,476 6.0 -19.4°
Sets 18:58:55 0° 23° (NNE) 3,418 6.7 -19.8°
